Regional Weather Roundup
Issued by NWS

Home | Current Version | Previous Version | Graphics & Text | Print | Product List | Glossary Off
Versions: 1 2 3 4 5 6 7 8 9 10 11 12 13 14 15 16 17 18 19 20 21 22 23 24 25 26 27 28 29 30 31 32 33 34 35 36 37 38 39 40 41 42 43 44 45 46 47 48 49 50

000
ASUS43 KDTX 191610
RWRMI
MICHIGAN HOURLY REGIONAL WEATHER ROUNDUP
NATIONAL WEATHER SERVICE DETROIT/PONTIAC MI
1200 PM EDT SAT APR 19 2014

NOTE: "FAIR" INDICATES FEW OR NO CLOUDS BELOW 12,000 FEET WITH NO
SIGNIFICANT WEATHER AND/OR OBSTRUCTION TO VISIBILITY.

MIZ047>049-052>055-059>063-066>070-074>076-081>083-191700-
SOUTHEAST LOWER MICHIGAN

CITY           SKY/WX    TMP DP  RH WIND       PRES   REMARKS
ADRIAN         SUNNY     49  28  44 E13       30.45S
ALMA           SUNNY     46  32  59 E10       30.47F
ANN ARBOR      SUNNY     50  27  40 E12       30.45S
BAD AXE        SUNNY     43  32  64 E7        30.50R
CARO           SUNNY     48  30  49 E6        30.47S
DETROIT CITY   SUNNY     50  28  42 NE10      30.47S
DETROIT        MOSUNNY   50  26  39 N10       30.46F
FLINT          SUNNY     49  29  46 E13       30.46F
GROSSE ILE     SUNNY     48  30  49 NE10      30.45S
HILLSDALE      SUNNY     51  24  34 E12       30.41F
HOWELL         SUNNY     48  26  41 NE8       30.43F

CITY           SKY/WX    TMP DP  RH WIND       PRES   REMARKS
JACKSON        SUNNY     50  27  40 E8        30.43F
LAMBERTVILLE   SUNNY     48  32  53 E12G17    30.45S
LANSING        SUNNY     48  29  47 E9        30.45F
LAPEER         FAIR      46  31  57 E7        30.47F
MASON          SUNNY     47  30  50 E8        30.44F
MONROE         SUNNY     48  32  53 E12G18    30.44F
MT. CLEMENS    SUNNY     47  32  54 E9        30.45R
PONTIAC        MOSUNNY   47  24  40 NE12      30.44F
PORT HOPE        N/A     37  31  78 E10       30.50S WCI  30
PORT HURON     SUNNY     45  32  61 NE9       30.47F
TRI CITIES     SUNNY     47  31  53 E12G17    30.48F
TROY           SUNNY     47  28  46 E7        30.47F
SAGINAW HB     SUNNY     46  32  57 E10G16    30.47F
YPSILANTI      SUNNY     53  27  36 E8        30.46S
$$
MIZ043>046-050>051-056>058-064>065-071>073-077>080-191700-
SOUTHWEST LOWER MICHIGAN

CITY           SKY/WX    TMP DP  RH WIND       PRES   REMARKS
BATTLE CREEK   SUNNY     49  28  44 E8        30.41F
BENTON HARBOR  SUNNY     52  35  52 E13       30.38F
BIG RAPIDS     SUNNY     46  28  48 SE15      30.43F
COLDWATER      SUNNY     51  31  45 E10       30.41F
FREMONT        FAIR      48  23  37 E12       30.42F
HOLLAND        SUNNY     51  32  48 E9        30.41F
GRAND RAPIDS   MOSUNNY   49  31  49 E14       30.43F
IONIA          FAIR      47  31  55 E10       30.44F
KALAMAZOO      SUNNY     51  31  46 E9        30.41F
LUDINGTON      MOSUNNY   49  29  46 SE8       30.40F
MARSHALL       SUNNY     50  26  40 E9        30.41F
MOUNT PLEASANT SUNNY     46  31  55 E13       30.46F
MUSKEGON       PTSUNNY   51  26  37 SE15      30.41F
SOUTH HAVEN    SUNNY     53  33  48 E9        30.39F
$$
MIZ016>042-191700-
NORTHERN LOWER MICHIGAN

CITY           SKY/WX    TMP DP  RH WIND       PRES   REMARKS
ALPENA         SUNNY     41  28  60 SE13      30.51S
BEAVER ISLAND  MOSUNNY   41  28  60 E9G17     30.46S
BELLAIRE       SUNNY     48  27  43 SE9       30.44F
CADILLAC       SUNNY     46  28  49 E14       30.40F
CHARLEVOIX     SUNNY     44  28  53 E9        30.47F
FRANKFORT      SUNNY     48  26  41 SE12G17   30.41F
GAYLORD        SUNNY     43  25  49 VRB7      30.44F
GRAYLING       SUNNY     48  26  42 E9        30.44F
HARBOR SPRINGS SUNNY     46  29  52 E9        30.45F
HOUGHTON LAKE  SUNNY     47  27  45 E12       30.45F
MANISTEE       SUNNY     48  25  40 SE13G18   30.41F
OSCODA         SUNNY     41  30  65 E9        30.51F
PELLSTON       MOSUNNY   43  28  55 E12       30.48F
ROGERS CITY    MOSUNNY   39  30  70 NE13      30.52S WCI  32
TRAVERSE CITY  MOSUNNY   48  26  42 SE12      30.42F
$$
MIZ007>008-015-191700-
EASTERN UPPER MICHIGAN

CITY           SKY/WX    TMP DP  RH WIND       PRES   REMARKS
KINROSS        MOSUNNY   39  28  65 SE12      30.48F WCI  32
MACKINAC ISLAN MOSUNNY   34  32  91 E8G22     30.48F WCI  27
NEWBERRY       MOSUNNY   39  26  61 SE10      30.45S WCI  32
S. S. MARIE    MOSUNNY   39  25  57 SE12      30.48F WCI  32
MUNISING         N/A     41  26  55 S14G21    30.40F
$$
MIZ004>006-011>014-085-191700-
CENTRAL UPPER MICHIGAN

CITY           SKY/WX    TMP DP  RH WIND       PRES   REMARKS
MANISTIQUE     MOSUNNY   35  30  81 SE13      30.45S WCI  27
ESCANABA       CLOUDY    37  30  75 SE13      30.42F WCI  29
MENOMINEE      SUNNY     39  30  70 S14G21    30.40F WCI  31
SAWYER-GWINN   SUNNY     37  28  70 SE15      30.37S WCI  28
$$
MIZ001>003-009>011-084-191700-
WESTERN UPPER MICHIGAN

CITY           SKY/WX    TMP DP  RH WIND       PRES   REMARKS
IRON MOUNTAIN  SUNNY     40  26  57 SE13G20   30.35S WCI  32
HOUGHTON       CLOUDY    33  26  75 E14       30.30F WCI  23
COPPER HARBOR    N/A     34  28  79 S15G26    30.35F WCI  24
IRONWOOD       CLOUDY    41  21  45 SE13G29   30.15R
$$

ABBREVIATIONS USED IN REMARKS
   TC - TEMPERATURE IN CELSIUS
  WCI - WIND CHILL INDEX
   HX - HEAT INDEX
  VSB - VISIBILITY




USA.gov is the U.S. government's official web portal to all federal, state and local government web resources and services.